Regional Weather Roundup
Issued by NWS

Home | Current Version | Previous Version | Text Only | Print | Product List | Glossary Off
Versions: 1 2 3 4 5 6 7 8 9 10 11 12 13 14 15 16 17 18 19 20 21 22 23 24 25 26 27 28 29 30 31 32 33 34 35 36 37 38 39 40 41 42 43 44 45 46 47 48 49 50

000
ASUS43 KMKX 291311
RWRWI

WISCONSIN REGIONAL WEATHER ROUNDUP
NATIONAL WEATHER SERVICE MILWAUKEE/SULLIVAN WI
700 AM CST MON DEC 29 2014

NOTE: "FAIR" INDICATES FEW OR NO CLOUDS BELOW 12,000 FEET WITH NO
SIGNIFICANT WEATHER AND/OR OBSTRUCTIONS TO VISIBILITY.

WIZ001-002-006>008-014>016-023>028-291400-
NORTHWEST WISCONSIN

CITY           SKY/WX    TMP DP  RH WIND       PRES   REMARKS
SUPERIOR ARPT  PTCLDY    -3 -10  74 N3        30.52R
ASHLAND        CLOUDY     2  -3  80 NW6       30.46R WCI  -9
HAYWARD        FAIR     -11 -17  75 CALM      30.43R
SIREN          PTCLDY    -5  -9  82 CALM      30.49R
CUMBERLAND     MOCLDY    -4  -9  77 N7        30.43R WCI -18
RICE LAKE      MOCLDY    -2  -8  77 NW6       30.46R WCI -14
CHETEK         MOCLDY    -3  -8  81 NW3       30.46R
LADYSMITH      PTCLDY    -5  -8  84 NW5       30.42R WCI -15
EAU CLAIRE     MOCLDY     0  -6  76 CALM      30.45R
MENOMONIE      MOCLDY     3  -5  70 NW10      30.46R WCI -13
NEW RICHMOND   PTCLDY    -2  -7  77 N7        30.48R WCI -15
OSCEOLA        PTCLDY     0  -6  75 N6        30.53R WCI -11
$$

WIZ003>005-009-010-017-018-291400-
NORTH CENTRAL WISCONSIN

CITY           SKY/WX    TMP DP  RH WIND       PRES   REMARKS
MANITOWISH WTR FLURRIES  -3  -6  84 CALM      30.32R
ARBOR VITAE    FLURRIES   1  -4  82 CALM      30.32R
WOODRUFF       FLURRIES   1  -4  82 CALM      30.32R
RHINELANDER    MOCLDY    -7 -11  83 CALM      30.31R
EAGLE RIVER    FLURRIES  -3  -8  79 CALM      30.30S
LAND O LAKES   FLURRIES   6   1  81 W3        30.30S
PHILLIPS       PTCLDY   -17 -21  79 CALM      30.35R HAZE
TOMAHAWK       MOCLDY   -13 -18  79 CALM      30.35R
MEDFORD        PTCLDY   N/A N/A N/A N5        30.35R
MERRILL        MOCLDY    -4  -7  84 CALM      30.35S
$$

WIZ029-030-035-036-043>047-291400-
CENTRAL WISCONSIN

CITY           SKY/WX    TMP DP  RH WIND       PRES   REMARKS
WAUSAU         MOCLDY     2  -2  83 NW5       30.35R WCI  -8
MOSINEE        CLEAR      1   0  92 NW3       30.36R
MARSHFIELD     MOCLDY     3  -2  79 NW6       30.36R WCI  -8
STEVENS POINT  MOCLDY     5   0  80 CALM      30.39R
WAUPACA        MOCLDY    14   7  73 NW6       30.40R WCI   5
WAUTOMA        MOCLDY    13   6  73 N6        30.40R WCI   4
WISC RAPIDS    MOCLDY     9   2  73 N6        30.40R WCI  -1
CAMP DOUGLAS   MOCLDY    12   9  85 N7        30.39S WCI   2
$$

WIZ011>013-019>022-031-037>040-048>050-291400-
NORTHEAST WISCONSIN

CITY           SKY/WX    TMP DP  RH WIND       PRES   REMARKS
ANTIGO         MOCLDY    -1  -4  87 NW7       30.32S WCI -15
SHAWANO        CLOUDY    11   6  79 W3        30.39R
OCONTO         MOCLDY    12   6  77 NW3       30.39R
STURGEON BAY   MOCLDY    14   7  73 N13       30.37R WCI   0
GREEN BAY      CLOUDY    15   8  73 NW7       30.39R WCI   5
MANITOWOC      MOCLDY    16  11  80 NW8       30.38R WCI   5
APPLETON       PTCLDY    12   7  79 NW6       30.38R WCI   3
CLINTONVILLE   MOCLDY    12   5  73 N7        30.38R WCI   2
OSHKOSH        MOCLDY    16   7  67 NW6       30.38R WCI   7
$$

WIZ032>034-041-042-053>061-291400-
SOUTHWEST WISCONSIN

CITY           SKY/WX    TMP DP  RH WIND       PRES   REMARKS
LA CROSSE      CLOUDY    13   4  67 N8        30.43R WCI   2
SPARTA         MOCLDY    10   5  79 N5        30.42R WCI   2
VIROQUA        MOCLDY    13   8  81 N8        30.35R WCI   1
BOSCOBEL       MOCLDY    20  11  68 NE3       30.39R
PRAIRIE DU CHI MOCLDY    20  11  68 NE6       30.39R WCI  13
PLATTEVILLE    MOCLDY    20  15  80 CALM      30.35R
$$

WIZ056-057-062-063-064-067-068-291400-
SOUTH CENTRAL WISCONSIN

CITY           SKY/WX    TMP DP  RH WIND       PRES   REMARKS
REEDSBURG      CLOUDY    14   8  78 N5        30.38R WCI   6
BARABOO/DELLS  PTCLDY    14  10  84 N5        30.37R WCI   6
LONE ROCK      PTCLDY    21   9  59 N7        30.39R WCI  12
MINERAL POINT  PTCLDY    21  14  73 N8        30.33R WCI  12
MADISON        MOCLDY    17  11  77 N8        30.37R WCI   7
MIDDLETON      MOCLDY    19  13  76 NE7       30.37R WCI  10
WATERTOWN      PTCLDY    16  11  82 N3        30.36R
MONROE         PTCLDY    19  18  93 N12       30.32R WCI   7
JANESVILLE     CLEAR     21  16  79 N6        30.35R WCI  14
$$

WIZ051-052-058>065-066-070>072-291400-
SOUTHEAST WISCONSIN

CITY           SKY/WX    TMP DP  RH WIND       PRES   REMARKS
MILWAUKEE      PTCLDY    20  11  68 N9        30.35R WCI   9
WAUKESHA       PTCLDY    16  10  79 N6        30.35R WCI   7
MILWAUKEE/TIMM PTCLDY    18  10  73 N7        30.36R WCI   8
RACINE         PTCLDY    22  15  75 N9        30.36R WCI  12
BURLINGTON     PTCLDY    19  14  81 N6        30.35R WCI  11
KENOSHA        MOCLDY    22  16  78 N8        30.34R WCI  12
FOND DU LAC    MOCLDY    17   7  64 N8        30.38R WCI   7
SHEBOYGAN      MOCLDY    16   7  67 N7        30.38R WCI   6
WEST BEND      MOCLDY    16   7  67 NW5       30.36R WCI   9
JUNEAU         PTCLDY    15   8  73 N6        30.38R WCI   6
$$

LSZ147-162-291400-
LAKE SUPERIOR

STATION/POSITION TIME  TEMP    WIND        PRES    WAVE
                       AIR SEA DIR/SP/G            HT/PER
                 (UTC) (F)     (DEG/KT/KT) (MB)    (FT/S)
DEVILS ISLAND    1300    5     320/ 18/ 22 1033.3R
PORT WING        1200    5     340/  8/ 12 1032.2R
SAXON HARBOR     1240    6     240/  7/ 11 1030.8R
$$

LMZ867-665-643>646-291400-
LAKE MICHIGAN

STATION/POSITION TIME  TEMP    WIND        PRES    WAVE
                       AIR SEA DIR/SP/G            HT/PER
                 (UTC) (F)     (DEG/KT/KT) (MB)    (FT/S)
CHAMBERS ISLAND  1200   14     300/ 11/ 15 1027.8R
NORTHPORT PIER   1212   16     310/ 15/ 21 1027.4R
SISTER BAY       1228          320/ 18/ 21   N/A
ALGOMA LAKESHORE 1200          340/ 12/ 17   N/A
KEWAUNEE LAKESHO 1200   16     310/  6/ 11 1026.8R
SHEBOYGAN LAKESH 1300   17 35  320/ 10/ 11 1030.2R
PORT WASHINGTON  1200   19     350/  4/  7 1028.4R
MILWAUKEE LAKESH 1200   22     330/  9/ 11   N/A
KENOSHA   LAKESH 1300   25     340/ 11/ 13 1027.4R
$$

TC  - TEMPERATURE IN CELSIUS
VSB - VISIBILITY IN STATUTE MILES
WCI - WIND CHILL INDEX
HX  - HEAT INDEX




USA.gov is the U.S. government's official web portal to all federal, state and local government web resources and services.